This demonstration page uses our WeatherBlox Daily Observations layout. Learn more.

Left ArrowRight Arrow

47.50024, -111.30081

Hourly Observations for April 13, 2018

Temp ( °F °C ) Dew Point ( °F °C ) Humidity (%) Winds ( mph kmh ) Pressure ( in mb ) Visibility ( mi km ) Precip ( " mm )
12:05 am 00:05 Cloudy with Light Snow 28 -2.2 27 -2.8 96 96 W 9 15 30.03 1017 2 2 0.00 0.03
12:33 am 00:33 Cloudy with Light Snow 28 -2.2 27 -2.8 96 96 W 10 17 30.03 1017 2 3 0.00 0.03
12:53 am 00:53 Cloudy with Light Snow 28 -2.2 27 -2.8 96 96 W 9 15 30.01 1016 2 3 0.01 0.25
1:16 am 01:16 Cloudy with Light Snow 28 -2.2 27 -2.8 96 96 W 9 15 30.06 1018 1 2 0.01 0.25
1:25 am 01:25 Cloudy with Light Snow 28 -2.2 27 -2.8 96 96 W 8 13 30.06 1018 1 2 0.01 0.25
1:53 am 01:53 Cloudy with Light Snow 28 -2.2 27 -2.8 96 96 W 9 15 30.04 1017 1 2 0.02 0.51
2:53 am 02:53 Cloudy with Light Snow 27 -2.8 27 -2.8 100 100 W 6 9 30.05 1018 2 3 0.02 0.51
3:53 am 03:53 Cloudy with Light Snow 27 -2.8 26 -3.3 96 96 W 5 7 30.08 1019 2 3 0.01 0.25
4:22 am 04:22 Cloudy with Light Snow 26 -3.3 25 -3.9 96 96 W 5 7 30.09 1019 2 3 0.01 0.25
4:53 am 04:53 Cloudy with Light Snow 25 -3.9 24 -4.4 96 96 W 5 7 30.10 1019 4 6 0.01 0.25
5:53 am 05:53 Cloudy with Light Snow 27 -2.8 26 -3.3 96 96 Calm 30.12 1020 5 8 0.00 0.03
6:53 am 06:53 Cloudy with Mist and Fog 26 -3.3 26 -3.3 100 100 S 3 6 30.15 1021 6 10 0.00 0.03
7:10 am 07:10 Cloudy with Mist and Fog 26 -3.3 26 -3.3 100 100 Calm 30.15 1021 2 3 0.00 0.00
7:13 am 07:13 Cloudy with Mist and Fog 26 -3.3 26 -3.3 100 100 Calm 30.15 1021 1 1 0.00 0.00
7:23 am 07:23 Cloudy with Mist and Fog 26 -3.3 26 -3.3 100 100 Calm 30.18 1022 2 2 0.00 0.00
7:25 am 07:25 Cloudy with Mist and Fog 27 -2.8 26 -3.3 96 96 Calm 30.18 1022 3 5 0.00 0.00
7:53 am 07:53 Cloudy with Mist and Fog 28 -2.2 27 -2.8 96 96 Calm 30.18 1022 4 6 0.00 0.00
8:53 am 08:53 Cloudy 29 -1.7 27 -2.8 92 92 SSE 5 7 30.21 1023 10 16 0.00 0.00
9:53 am 09:53 Cloudy 30 -1.1 28 -2.2 92 92 SSW 8 13 30.22 1023 10 16 0.00 0.00
10:53 am 10:53 Mostly Cloudy 31 -0.6 28 -2.2 89 89 SW 10 17 30.24 1024 10 16 0.00 0.00
11:53 am 11:53 Partly Cloudy 33 0.6 28 -2.2 82 82 SW 10 17 30.26 1025 10 16 0.00 0.00
12:53 pm 12:53 Sunny 35 1.7 28 -2.2 76 76 SW 12 19 30.27 1025 10 16 0.00 0.00
1:53 pm 13:53 Sunny 37 2.8 28 -2.2 70 70 SW 12 19 30.27 1025 10 16 0.00 0.00
2:53 pm 14:53 Sunny 39 3.9 30 -1.1 70 70 WSW 8 13 30.29 1026 10 16 0.00 0.00
3:53 pm 15:53 Sunny 42 5.6 31 -0.6 65 65 SW 7 11 30.29 1026 10 16 0.00 0.00
4:53 pm 16:53 Sunny 44 6.7 29 -1.7 55 55 WSW 13 20 30.28 1025 10 16 0.00 0.00
5:53 pm 17:53 Sunny 45 7.2 28 -2.2 52 52 W 13 20 30.28 1025 10 16 0.00 0.00
6:53 pm 18:53 Sunny 43 6.1 29 -1.7 58 58 W 13 20 30.29 1026 10 16 0.00 0.00
7:53 pm 19:53 Sunny 38 3.3 29 -1.7 70 70 WSW 12 19 30.30 1026 10 16 0.00 0.00
8:53 pm 20:53 Clear 35 1.7 28 -2.2 76 76 SW 13 20 30.32 1027 10 16 0.00 0.00
9:53 pm 21:53 Clear 35 1.7 26 -3.3 70 70 SW 15 24 30.30 1026 10 16 0.00 0.00
10:53 pm 22:53 Clear 35 1.7 25 -3.9 67 67 SW 15 24 30.28 1026 10 16 0.00 0.00
11:53 pm 23:53 Clear 35 1.7 26 -3.3 70 70 SW 15 24 30.25 1025 10 16 0.00 0.00

Powered by AerisWeather